Location: Newark
(50.1751°N, 5.6239°W)
Time: 14:59:21
(UTC+00:00)

Nauka - Pass Details

Date: 25 September 2021
Orbit: 417 x 423 km, 51.6° (Epoch: 24 October)

Event Time Altitude Azimuth Distance (km) Brightness Sun altitude
Rises 19:41:09 0° 274° (W) 2,364 ? -14.7°
Reaches altitude 10° 19:43:16 10° 277° (W) 1,501 ? -15.0°
Maximum altitude 19:46:37 66° 1° (N) 464 ? -15.5°
Enters shadow 19:47:58 33° 73° (ENE) 738 ? -15.7°
